FW3640 Weather Reports


Display with metric or nautical units.
time (UTC)temp
F
wind
direction
speed
MPH
gust
MPH
rain 1hr
in
rain 24hr
in
rain mn
in
humidity
%
barometer
mb
20260504194116 80 0.0 1.0 0.00 0.00 0.00 26 1015.1
20260504193116 79 113 1.0 4.0 0.00 0.00 0.00 28 1015.1
20260504192116 79 0.0 1.0 0.00 0.00 0.00 23 1015.3
20260504191116 80 293 1.0 4.0 0.00 0.00 0.00 24 1015.4
20260504190116 80 0.0 3.0 0.00 0.00 0.00 26 1015.6
20260504185137 79 0.0 1.0 0.00 0.00 0.00 29 1015.8
20260504184136 78 0.0 0.0 0.00 0.00 0.00 24 1015.8
20260504183117 78 0.0 2.0 0.00 0.00 0.00 27 1015.8
20260504182116 78 0.0 2.0 0.00 0.00 0.00 32 1016.0
20260504181136 78 0.0 0.0 0.00 0.00 0.00 24 1016.0
20260504180116 78 315 2.0 8.0 0.00 0.00 0.00 24 1016.1
20260504175116 77 315 1.0 3.0 0.00 0.00 0.00 27 1016.2
20260504174116 78 0.0 1.0 0.00 0.00 0.00 33 1016.4
20260504173116 77 293 2.0 5.0 0.00 0.00 0.00 29 1016.4
20260504172136 75 338 1.0 2.0 0.00 0.00 0.00 30 1016.7
20260504171117 76 315 3.0 7.0 0.00 0.00 0.00 29 1017.0
20260504170116 75 315 3.0 5.0 0.00 0.00 0.00 27 1016.9
20260504160116 73 68 1.0 5.0 0.00 0.00 0.00 33 1017.7
20260504151136 70 293 1.0 4.0 0.00 0.00 0.00 43 1017.9
20260504150116 69 338 1.0 3.0 0.00 0.00 0.00 41 1018.0
20260504141116 65 0.0 1.0 0.00 0.01 0.00 51 1018.2
20260504140116 64 315 1.0 2.0 0.00 0.01 0.00 50 1018.2
20260504130116 60 0.0 1.0 0.00 0.01 0.00 62 1018.4
20260504120115 53 0.0 0.0 0.00 0.01 0.00 77 1018.5
20260504110137 49 0.0 0.0 0.00 0.01 0.00 76 1018.5
20260504100117 50 0.0 0.0 0.00 0.01 0.00 73 1018.3
20260504090137 51 0.0 0.0 0.00 0.01 0.00 69 1018.2
20260504081117 51 0.0 0.0 0.00 0.01 0.00 67 1018.3
20260504080117 52 0.0 0.0 0.00 0.01 0.00 66 1018.2
20260504070116 53 0.0 0.0 0.00 0.01 0.00 59 1018.2
20260504060136 53 113 1.0 4.0 0.00 0.01 0.00 51 1018.2
20260504050116 50 0.0 0.0 0.00 0.01 0.00 48 1018.4
20260504045156 49 0.0 0.0 0.00 0.01 0.00 50 1018.5
20260504044116 48 0.0 0.0 0.00 0.01 0.00 53 1018.4
20260504043117 48 0.0 0.0 0.00 0.01 0.00 53 1018.5
20260504042136 47 0.0 0.0 0.00 0.01 0.00 56 1018.5
20260504041116 47 0.0 0.0 0.00 0.01 0.00 58 1018.5
20260504040116 47 0.0 0.0 0.00 0.01 0.00 57 1018.5
20260504035115 47 0.0 0.0 0.00 0.01 0.01 59 1018.5
20260504034117 47 0.0 0.0 0.00 0.01 0.01 58 1018.5
20260504033117 47 0.0 0.0 0.00 0.01 0.01 58 1018.4
20260504032118 47 0.0 0.0 0.00 0.01 0.01 58 1018.3
20260504031117 47 0.0 0.0 0.00 0.01 0.01 58 1018.3
20260504030117 47 0.0 0.0 0.00 0.01 0.01 58 1018.2
20260504025117 47 0.0 0.0 0.00 0.01 0.01 57 1018.2
20260504024117 48 0.0 0.0 0.00 0.01 0.01 56 1018.2
20260504023117 48 0.0 0.0 0.00 0.01 0.01 56 1018.2
20260504022117 49 0.0 0.0 0.00 0.01 0.01 55 1018.3
20260504021117 49 0.0 0.0 0.00 0.01 0.01 54 1018.2
20260504020117 50 0.0 0.0 0.00 0.01 0.01 53 1018.1
20260504015117 50 0.0 0.0 0.00 0.01 0.01 52 1018.1
20260504014117 51 0.0 0.0 0.00 0.01 0.01 51 1018.1
20260504013117 51 0.0 0.0 0.00 0.01 0.01 51 1018.0
20260504012117 52 0.0 0.0 0.00 0.01 0.01 50 1017.9
20260504011117 53 0.0 0.0 0.00 0.01 0.01 48 1017.8
20260504010117 54 0.0 0.0 0.00 0.01 0.01 48 1017.6
20260504005137 55 0.0 0.0 0.00 0.01 0.01 46 1017.5
20260504004117 56 0.0 0.0 0.00 0.01 0.01 45 1017.4
20260504003117 58 0.0 0.0 0.00 0.01 0.01 43 1017.2
20260504002117 58 0.0 0.0 0.00 0.01 0.01 41 1017.1
20260504001117 60 0.0 0.0 0.00 0.01 0.01 37 1017.0
20260504000137 61 0.0 0.0 0.00 0.01 0.01 33 1016.9
20260503235157 62 0.0 0.0 0.00 0.01 0.01 30 1017.1
20260503234117 63 0.0 0.0 0.00 0.01 0.01 27 1017.0
20260503233117 63 0.0 0.0 0.00 0.01 0.01 26 1016.9
20260503232137 63 0.0 0.0 0.00 0.01 0.01 26 1016.9
20260503231117 64 0.0 1.0 0.00 0.01 0.01 24 1017.0
20260503230117 65 293 1.0 3.0 0.00 0.01 0.01 23 1017.0
20260503225117 65 0.0 1.0 0.00 0.01 0.01 24 1017.1
20260503224117 65 0.0 1.0 0.00 0.01 0.01 23 1017.1
20260503223157 66 293 1.0 4.0 0.00 0.01 0.01 23 1017.1
20260503222116 66 0.0 0.0 0.00 0.01 0.01 24 1017.1
20260503221137 66 0.0 0.0 0.00 0.01 0.01 23 1017.0
20260503220116 66 270 1.0 4.0 0.00 0.01 0.01 23 1016.9
20260503215116 67 0.0 0.0 0.00 0.01 0.01 23 1017.0
20260503214116 67 315 1.0 3.0 0.00 0.01 0.01 20 1017.0
20260503213116 67 315 1.0 4.0 0.00 0.01 0.01 21 1017.1
20260503212116 67 0.0 1.0 0.00 0.01 0.01 22 1017.1
20260503211116 67 23 1.0 5.0 0.00 0.01 0.01 21 1017.2
20260503210116 68 315 1.0 3.0 0.00 0.01 0.01 25 1017.1
20260503205116 68 0.0 2.0 0.00 0.01 0.01 26 1017.2
20260503204116 68 315 1.0 3.0 0.00 0.01 0.01 27 1017.3
20260503203116 67 0.0 0.0 0.00 0.01 0.01 22 1017.3
20260503202116 68 293 1.0 2.0 0.00 0.01 0.01 26 1017.4
20260503201116 68 90 1.0 2.0 0.00 0.01 0.01 25 1017.6
20260503200117 67 315 1.0 3.0 0.00 0.01 0.01 21 1017.8
20260503195116 67 0.0 1.0 0.00 0.01 0.01 28 1017.9